Wind_Speed
8 7 6 3 3 8 17 17 17 18 18 19 18 16 15 15 15 15 15 15 14 14 14 13 13 13 13 15 17 17 17 15 14 13 12 13 13 15 17 18 20 19 15 13 11 9 9 8 9 10 9 8 7 6 5 3 4 4 3 4 4 4
8 7 6 4 4 6 13 14 13 17 19 18 18 16 15 15 15 15 16 15 14 13 13 12 12 12 13 15 17 17 18 17 15 14 13 13 14 14 17 19 22 20 15 13 10 7 8 8 10 10 9 9 8 7 5 4 4 4 3 4 4 4
8 8 6 5 5 5 10 11 11 15 17 16 15 16 15 14 15 14 15 15 14 13 12 12 12 12 12 15 17 18 19 18 16 15 14 14 14 15 17 20 21 20 16 13 8 6 7 8 10 11 10 9 9 7 6 5 5 4 4 4 4 5
8 8 7 6 6 5 7 9 9 12 15 14 13 15 15 14 14 13 13 14 12 13 12 11 12 11 10 14 18 19 20 20 17 15 16 15 14 16 18 18 18 18 15 11 8 6 7 7 9 11 11 10 9 7 6 6 5 5 4 4 5 6
7 7 7 6 6 5 5 7 8 10 12 13 13 16 15 13 13 12 13 12 11 11 11 10 11 10 9 12 18 20 20 20 19 17 17 16 15 17 17 15 16 15 12 10 8 7 7 7 8 10 10 10 9 8 7 7 6 5 4 5 6 7
6 7 7 5 5 5 5 6 6 7 8 10 11 13 14 12 11 11 12 12 11 10 10 10 9 9 9 10 14 19 21 20 19 19 18 16 16 17 16 14 14 13 11 10 9 8 7 7 7 9 9 9 9 9 8 7 6 5 4 5 7 7
5 6 6 5 5 5 5 6 4 6 6 7 9 10 10 11 11 11 11 10 10 10 10 10 10 10 10 10 12 17 20 18 17 18 18 16 16 17 16 14 13 13 11 10 9 9 9 8 8 8 9 9 9 10 9 7 6 6 5 5 6 7
5 5 6 5 5 5 6 6 4 4 5 8 9 7 7 10 10 11 12 10 9 10 10 10 11 10 11 11 12 16 18 17 17 16 17 17 16 16 15 13 13 12 11 10 10 9 9 10 10 9 9 9 9 10 9 8 7 6 5 5 6 8
6 5 5 5 5 6 6 6 5 4 2 6 9 8 8 9 8 9 12 12 10 11 12 12 12 12 13 12 13 16 17 17 17 15 15 17 15 15 15 13 13 12 11 11 10 10 9 10 11 10 10 10 10 10 10 9 7 7 6 6 6 8
7 6 5 5 5 5 6 6 6 5 4 3 6 9 8 8 7 6 9 12 11 12 14 14 13 14 16 14 14 16 16 17 17 15 15 16 15 14 14 13 12 11 11 11 10 10 10 10 11 12 12 11 11 11 11 10 9 8 8 7 7 7
8 8 7 6 6 6 6 6 6 5 5 4 1 3 5 8 10 8 6 9 11 11 14 15 14 14 15 15 14 15 16 16 15 15 15 15 14 14 14 13 12 12 11 11 10 10 10 10 11 12 13 12 12 11 11 11 11 9 9 8 8 7
8 9 8 7 7 6 6 6 6 5 4 4 4 2 1 5 10 12 10 9 9 10 12 13 15 14 13 14 15 15 15 17 16 15 15 14 13 13 14 12 12 11 11 10 9 9 10 10 11 12 13 13 13 12 12 12 12 11 10 9 9 9
7 9 9 8 8 7 6 6 6 5 5 4 4 3 2 2 5 11 13 10 10 11 12 13 15 15 13 13 17 18 15 16 17 15 14 13 12 13 14 13 12 11 11 11 10 9 10 10 11 12 12 13 14 13 13 13 13 12 11 11 10 9
7 8 9 9 8 7 7 6 6 6 5 4 3 3 3 3 4 6 8 8 9 11 13 13 13 14 15 13 15 18 17 16 16 15 13 13 12 13 14 13 12 12 12 11 11 10 10 11 12 12 13 13 14 14 14 14 14 13 12 12 11 10
6 7 8 9 10 8 8 7 6 6 5 3 2 3 2 3 3 4 5 7 10 10 11 13 12 13 16 17 16 16 17 16 15 15 14 13 13 13 13 14 13 13 12 12 11 11 11 11 12 13 14 14 15 15 15 15 14 14 13 12 12 11
4 5 7 10 12 11 11 10 7 8 8 5 3 2 2 2 2 4 4 6 9 12 13 11 11 13 15 17 18 18 17 16 16 16 15 14 14 14 13 14 14 14 13 12 11 12 11 11 12 13 14 14 15 15 16 16 16 15 14 14 13 12
4 4 6 9 11 10 11 11 9 9 10 7 4 3 3 3 2 3 4 4 5 9 12 10 10 12 14 15 16 18 19 19 19 17 16 16 15 16 15 14 15 15 14 13 12 12 12 11 12 13 14 15 15 15 16 16 16 16 15 15 14 13
2 3 5 8 10 10 10 10 9 10 11 8 5 4 4 3 2 2 3 4 4 5 7 9 11 11 12 14 13 15 17 19 21 20 20 19 18 17 16 16 16 16 15 15 14 12 11 11 11 12 14 15 15 16 16 17 17 17 16 16 15 14
2 2 5 8 9 8 8 8 7 7 8 7 6 5 4 3 2 2 2 3 4 4 5 8 11 12 13 14 12 13 15 14 16 20 23 25 24 20 17 18 19 18 16 16 15 12 11 10 11 12 13 14 16 16 16 17 17 17 18 17 15 14
3 2 3 5 6 6 7 7 7 7 7 7 6 5 4 3 2 2 2 3 3 4 5 6 9 12 16 17 15 14 14 12 11 17 21 26 31 27 21 20 20 19 17 16 15 13 12 11 11 12 12 13 15 15 17 17 18 18 18 17 15 15
5 2 2 2 2 5 7 7 7 8 9 8 7 6 4 4 3 2 3 3 3 4 5 6 7 8 11 13 15 15 16 17 16 19 20 22 29 30 25 23 22 21 19 18 17 15 14 12 12 12 11 12 14 14 16 17 19 20 19 18 17 16
6 4 3 2 2 3 5 7 7 7 8 7 6 6 5 4 4 3 3 3 3 3 4 5 6 7 8 9 11 11 13 16 17 22 24 23 25 26 27 24 21 21 20 19 19 17 17 15 13 14 12 11 11 13 16 18 20 21 20 19 18 17
6 5 3 3 3 2 4 8 8 7 8 7 5 6 5 3 4 3 3 4 4 5 5 5 5 6 8 8 9 9 9 10 12 17 20 23 24 23 25 25 22 21 20 18 17 17 20 18 15 14 13 9 8 9 13 17 21 22 21 20 18 18
6 4 2 2 3 3 5 8 8 7 8 8 5 5 4 3 3 4 4 4 5 6 6 7 6 6 7 8 8 9 9 10 11 13 14 18 24 25 25 26 27 28 25 20 17 18 21 22 19 15 11 8 8 8 8 12 18 21 22 21 20 20
7 5 3 1 3 4 4 5 4 3 5 6 5 5 4 4 5 5 5 6 6 7 7 8 8 8 8 8 8 9 10 11 12 14 14 16 22 27 27 26 29 34 33 26 22 21 22 23 23 20 15 10 8 8 7 10 13 15 19 22 21 21
8 6 4 2 2 3 3 3 4 4 4 5 5 5 5 5 5 5 6 7 8 7 7 8 9 9 9 9 10 10 10 11 12 13 14 15 18 22 24 25 29 34 35 32 27 21 20 22 24 24 22 17 12 8 6 8 9 7 13 19 20 21
9 7 7 5 1 3 3 2 4 4 4 4 4 3 3 4 4 5 6 7 8 8 8 8 9 9 10 10 11 11 11 12 12 13 13 15 17 18 19 24 29 34 35 34 32 26 21 22 23 24 25 22 20 15 10 9 8 6 8 12 17 20
11 9 8 7 3 3 3 1 2 3 3 3 2 2 2 3 4 5 6 7 8 8 8 8 9 9 10 11 11 12 12 12 13 14 13 15 17 18 20 22 26 31 34 33 34 33 27 24 21 22 23 23 22 20 17 14 12 10 8 7 11 16
12 10 10 9 5 3 3 1 1 2 2 2 1 1 1 2 3 4 5 7 7 8 8 8 9 9 9 10 11 11 12 13 14 15 14 15 16 17 20 22 24 28 32 33 35 37 35 30 24 18 19 20 21 22 21 20 17 15 13 10 8 10
14 11 11 10 7 5 3 2 1 1 2 1 1 1 1 1 2 3 5 6 7 7 7 8 8 10 10 10 10 11 12 13 14 15 16 16 16 17 18 20 23 26 31 33 34 35 39 38 31 22 20 19 19 21 21 20 20 19 17 14 11 8
14 12 12 11 8 6 4 3 3 2 2 1 1 1 1 1 2 3 4 6 6 7 7 8 9 9 11 11 11 12 12 13 14 15 16 17 17 17 17 19 21 24 29 33 32 33 36 38 35 29 27 24 21 21 22 20 21 22 18 15 12 9
15 13 12 11 9 7 6 5 4 2 2 1 1 2 2 3 3 3 4 5 6 7 7 8 8 9 11 12 12 13 13 13 14 14 16 16 17 17 17 18 19 21 26 31 33 34 34 35 35 33 32 30 28 25 25 25 24 23 21 18 15 11
16 14 12 11 10 8 7 6 4 3 3 2 2 3 3 3 4 4 4 5 6 7 7 8 8 9 11 12 13 13 13 14 15 15 16 16 17 18 18 19 19 19 22 26 31 36 37 36 36 37 36 34 33 31 29 29 26 23 23 22 19 14
15 14 13 12 10 9 8 7 5 4 4 3 3 3 4 4 5 5 5 6 7 7 8 9 9 10 11 12 14 15 15 16 16 16 17 17 18 18 19 20 20 20 21 23 27 32 36 38 39 40 40 38 37 36 35 33 29 26 25 23 21 17
16 15 15 13 11 10 9 7 6 5 4 4 4 4 4 5 5 6 6 7 8 9 10 10 10 11 11 12 14 15 16 17 17 18 18 19 19 19 19 20 21 21 21 22 24 27 32 37 41 42 43 42 41 39 39 37 32 29 28 25 22 22
18 16 16 14 12 11 9 8 6 5 5 4 4 5 5 6 6 7 8 9 9 10 11 11 11 12 12 13 14 16 16 17 18 18 18 19 19 20 20 20 21 22 22 22 22 25 30 34 38 39 41 44 44 42 41 39 36 34 33 29 24 24
18 16 16 15 12 11 10 8 7 6 6 5 6 6 6 7 8 9 9 10 11 11 12 12 12 13 13 13 14 16 17 17 18 18 19 19 20 21 21 21 22 22 23 23 23 24 26 29 33 35 38 42 44 45 45 41 39 38 36 34 30 28
Wind_Direction
56 67 86 116 142 178 191 190 184 182 188 185 182 189 191 188 186 184 182 185 186 183 183 177 182 185 183 184 182 182 182 184 185 182 179 174 167 168 176 174 166 163 161 160 154 150 150 159 176 181 181 175 169 177 184 177 167 162 155 154 146 169
54 59 75 100 116 162 184 182 179 184 188 184 180 186 190 189 190 190 185 188 187 181 182 171 175 185 186 188 187 185 183 187 191 189 185 179 175 173 174 170 166 166 168 170 165 159 162 166 181 188 186 180 181 194 191 181 182 176 169 153 155 194
51 52 58 79 99 134 169 172 170 177 182 179 179 184 187 188 191 195 190 189 188 185 183 175 180 186 184 187 187 189 189 190 193 192 189 183 181 176 173 171 170 171 174 179 174 166 171 170 182 192 192 190 195 203 193 192 194 181 180 160 176 215
49 51 49 60 82 114 156 166 161 165 172 174 179 182 184 191 195 200 198 194 194 192 186 180 186 186 183 186 187 192 194 190 188 191 189 181 180 181 177 178 180 181 179 181 180 178 180 173 179 187 192 197 204 206 197 200 200 189 185 160 192 226
47 53 51 51 62 89 140 159 158 159 166 172 180 183 185 191 197 206 207 203 200 198 193 183 182 181 183 186 185 189 190 184 181 186 186 178 179 183 181 182 186 188 185 184 184 187 192 186 183 186 192 200 206 207 203 205 203 198 186 169 207 232
49 54 57 58 55 70 113 134 152 164 164 168 175 183 188 191 194 205 212 210 205 201 200 192 181 179 185 188 184 187 189 184 181 185 185 181 182 184 185 183 185 188 189 188 188 189 197 202 199 196 198 202 206 207 205 207 204 204 194 184 218 231
54 58 60 65 64 63 89 101 128 155 165 180 179 181 191 197 194 203 213 213 210 205 205 202 190 183 188 192 184 184 188 186 186 186 186 190 188 187 190 188 187 190 192 194 194 193 200 210 214 211 209 207 208 207 207 211 203 205 202 191 225 237
54 60 61 62 67 64 71 81 98 129 171 195 188 182 201 208 202 208 214 212 214 211 211 210 198 189 188 195 187 184 188 187 190 190 191 196 194 193 195 195 192 192 195 199 201 204 206 210 216 220 219 215 213 210 209 215 209 208 210 196 224 246
56 56 59 60 63 63 66 71 80 90 142 186 186 185 199 213 212 218 216 213 219 215 214 211 205 197 190 195 193 187 190 192 192 194 198 203 202 200 200 199 197 196 200 203 206 212 214 213 214 218 222 220 217 214 212 214 215 212 214 208 216 240
58 54 51 56 55 52 55 59 66 69 74 128 186 193 199 212 216 225 220 216 221 219 216 211 211 207 195 195 198 193 193 195 196 198 202 207 208 205 205 204 202 204 206 209 212 214 219 219 216 217 219 221 219 216 214 215 216 214 214 216 214 228
58 57 52 53 53 43 40 41 44 47 49 52 83 173 205 222 222 229 228 220 223 225 221 215 215 215 204 200 202 203 200 199 201 203 206 209 208 205 206 207 209 212 213 214 215 213 217 221 220 219 217 219 219 215 215 216 217 217 214 216 217 221
56 56 54 52 53 45 37 28 29 36 25 8 14 39 224 231 226 229 229 226 228 230 226 219 219 219 215 208 206 209 209 208 208 207 210 211 210 210 210 210 211 213 212 212 210 207 213 221 221 220 218 216 216 213 213 215 215 217 216 217 220 218
59 53 53 51 49 44 38 26 22 29 21 9 354 339 325 290 246 234 231 229 230 231 229 225 223 221 219 217 214 213 214 217 217 214 213 213 214 216 214 212 211 209 207 207 207 207 212 219 221 222 220 215 212 212 212 214 214 215 216 217 220 220
66 55 50 45 45 40 34 30 23 17 14 23 7 340 315 296 284 257 242 237 235 230 229 230 230 225 220 219 220 218 219 222 223 219 215 214 214 217 217 218 217 211 206 207 209 208 212 218 219 220 220 216 212 210 212 214 214 214 216 218 219 221
76 62 51 43 45 41 32 29 23 13 9 17 8 353 342 312 288 268 254 251 249 239 233 231 232 232 226 221 220 220 221 223 223 222 221 217 215 217 218 221 221 215 209 208 212 209 210 217 218 217 216 215 214 210 211 214 215 215 216 217 220 222
96 71 53 44 44 43 37 32 24 11 7 11 6 350 344 339 309 279 267 257 254 247 242 237 232 234 233 227 223 222 224 224 221 222 225 223 223 221 217 221 221 218 216 212 214 212 209 215 217 215 213 213 214 211 210 213 214 217 218 218 220 222
110 78 53 41 40 40 38 38 32 18 12 12 7 357 339 328 320 298 288 275 263 249 244 244 239 234 234 234 230 228 228 228 225 224 227 228 230 226 221 224 220 217 222 223 223 218 212 213 214 213 211 210 212 212 213 214 214 217 220 220 222 223
106 72 53 42 38 32 32 35 31 23 21 19 11 1 344 325 307 306 303 289 283 262 246 242 241 234 233 235 234 233 232 230 226 224 227 229 231 229 224 226 226 221 222 229 232 226 218 213 210 210 208 208 210 212 215 216 216 217 220 221 223 224
116 63 51 45 39 29 27 29 24 23 23 19 12 3 354 346 314 309 318 299 286 269 254 246 242 238 236 235 233 236 236 235 228 224 226 227 227 228 224 224 229 226 221 230 236 233 228 215 209 209 206 207 208 212 218 219 219 219 221 223 224 225
148 79 55 47 37 31 29 26 23 21 18 12 6 4 7 12 348 320 318 309 293 272 263 256 247 243 242 239 236 237 237 238 233 229 230 229 228 227 226 222 222 222 220 228 233 232 230 216 207 207 205 208 207 213 219 220 222 222 223 225 226 226
151 112 96 86 55 46 35 25 23 18 13 8 3 1 5 12 5 338 323 315 290 279 271 261 253 247 247 244 241 242 245 247 242 236 235 235 233 231 228 221 216 214 216 225 228 227 224 210 204 201 199 207 209 216 221 221 225 227 228 229 229 228
154 140 122 114 108 72 42 32 29 21 14 10 6 359 350 349 357 346 333 334 308 293 286 271 261 252 250 248 245 245 248 252 248 240 239 239 239 238 232 220 209 209 212 222 225 223 218 208 205 200 192 199 205 216 223 225 229 230 232 231 229 227
162 154 125 98 107 98 48 39 35 33 28 22 14 0 351 346 353 351 333 331 322 309 302 287 276 267 262 255 252 248 244 245 242 240 240 239 239 241 236 222 210 212 212 214 219 225 223 215 214 205 193 199 203 210 221 225 229 231 230 229 228 226
169 162 136 84 72 58 36 34 31 36 38 33 30 13 6 11 353 344 321 308 306 304 305 296 286 280 272 265 261 258 253 245 238 238 238 237 235 234 234 227 221 221 216 207 209 224 228 220 220 215 200 205 202 205 221 216 220 226 225 224 225 223
177 171 162 70 53 58 49 41 33 42 44 36 36 26 14 7 346 332 316 305 303 299 296 293 292 288 279 275 270 263 259 254 247 242 237 235 234 233 235 234 228 225 219 211 207 220 230 221 221 224 220 220 206 205 229 213 209 218 218 221 224 221
183 179 187 200 70 75 79 64 48 44 41 32 31 26 13 353 337 326 315 309 306 301 291 286 288 288 283 280 277 270 265 260 255 249 243 239 237 237 237 233 227 223 219 213 206 215 232 223 219 227 229 231 233 232 240 220 209 213 212 218 226 224
188 185 199 207 166 95 87 61 52 54 52 43 33 23 6 338 327 320 313 310 306 303 297 289 284 282 280 279 278 276 271 266 262 257 252 246 242 239 237 232 226 221 217 213 206 208 228 228 219 224 228 230 238 244 249 238 229 227 216 218 225 226
190 190 202 211 202 130 109 72 55 72 70 54 40 19 355 326 321 314 310 309 306 301 296 291 286 281 279 276 275 274 272 270 266 263 258 254 248 241 238 236 228 220 215 212 208 207 219 232 225 219 222 226 233 240 244 245 243 240 241 232 223 225
192 192 202 211 210 174 130 100 67 80 73 52 29 4 338 320 316 313 311 307 303 298 292 289 287 284 283 279 274 272 270 268 266 265 262 258 256 250 242 238 232 226 220 216 213 209 212 227 233 223 219 222 229 238 241 244 244 242 247 249 235 224
193 191 201 209 208 192 156 130 158 126 90 71 350 333 320 318 310 309 310 305 302 298 294 292 288 285 284 283 279 274 270 267 265 265 264 260 259 259 254 245 236 233 228 221 218 214 212 219 227 228 225 222 225 233 238 240 238 238 242 246 249 237
194 191 197 205 201 191 174 165 181 164 118 124 291 297 295 296 294 299 299 298 300 297 295 293 289 287 285 283 283 278 272 267 264 263 262 261 259 258 259 255 245 239 235 229 224 222 220 219 220 223 226 225 224 229 236 238 235 235 235 237 244 243
194 189 190 197 194 185 180 177 181 170 146 158 231 256 270 279 279 282 280 284 294 293 292 290 287 287 286 284 283 279 275 269 264 261 260 260 259 256 257 258 254 247 242 236 229 225 224 222 219 219 224 227 227 231 239 241 239 236 235 237 238 238
194 187 185 188 186 181 180 179 176 166 157 176 222 244 256 266 267 271 272 275 282 285 285 285 284 286 284 284 281 277 275 271 265 262 259 259 259 257 256 256 256 252 246 240 233 228 226 224 222 220 223 228 230 233 237 241 242 238 235 236 235 235
194 186 182 181 180 178 178 178 175 167 162 183 216 236 248 257 263 268 270 272 275 277 277 277 277 278 279 280 278 274 273 271 268 265 261 258 258 257 256 254 254 253 249 246 240 233 229 227 225 223 222 226 231 234 235 237 241 240 237 234 232 234
192 185 179 178 178 176 175 174 172 170 172 189 214 231 243 250 258 265 268 270 272 271 272 273 273 273 274 275 275 274 273 270 268 266 263 260 256 256 256 253 251 250 250 251 247 239 232 229 227 225 224 225 229 234 235 235 237 239 239 235 233 232
193 185 179 178 177 174 174 175 175 176 181 195 216 230 239 244 251 262 267 269 270 269 270 272 272 272 271 271 273 273 272 270 268 266 265 260 255 253 253 252 251 248 247 248 249 245 237 232 228 225 225 225 227 231 233 234 234 237 237 235 237 237
193 185 179 177 176 175 174 176 178 180 187 202 219 231 238 244 251 260 265 267 269 270 271 271 271 271 271 271 272 272 270 269 267 265 263 260 257 255 253 251 250 249 247 245 247 247 243 238 234 228 226 226 226 228 231 232 233 235 236 234 237 244
Height
819 819 820 820 821 821 821 821 823 825 826 827 829 831 832 832 833 833 834 834 835 836 837 837 838 839 839 840 841 842 843 845 845 846 847 848 849 850 851 852 853 855 856 856 856 857 857 858 859 860 861 861 862 862 862 863 862 863 863 863 864 863
821 820 820 820 821 821 821 823 824 825 826 828 829 830 831 832 833 833 834 834 834 836 836 837 838 838 839 839 840 841 843 845 845 846 847 849 850 851 851 852 853 854 856 856 856 858 858 859 859 860 861 862 862 862 863 863 863 863 863 863 864 863
821 821 821 820 821 821 822 823 824 825 827 828 829 830 831 832 832 833 833 833 834 835 835 837 837 838 838 839 841 841 842 844 845 846 847 849 850 851 852 853 853 854 855 856 857 858 858 859 860 860 861 862 863 863 863 863 863 863 863 864 864 863
822 822 821 821 821 821 822 823 824 825 826 827 828 829 830 831 832 833 833 833 834 834 835 836 837 837 838 839 840 841 842 843 845 847 848 850 851 851 852 853 854 854 855 856 857 858 858 859 859 860 861 862 863 863 863 863 863 863 863 864 863 863
822 822 822 822 821 821 822 822 823 824 825 826 828 828 829 830 832 833 833 833 833 834 835 836 836 837 838 838 839 840 842 843 845 847 848 850 851 851 852 853 854 854 855 856 856 857 858 858 859 860 861 862 862 862 863 863 863 863 863 864 863 863
823 822 822 822 822 821 821 822 823 824 825 825 826 827 828 829 831 832 833 833 833 834 834 835 836 837 837 838 838 839 841 843 844 846 848 849 850 850 851 852 853 854 854 855 856 857 858 859 859 860 860 861 862 862 863 863 863 863 863 864 863 863
823 823 823 823 823 822 822 822 822 823 824 825 825 826 828 829 830 831 831 832 833 833 834 835 836 836 837 838 838 839 840 842 844 845 847 848 848 849 850 850 851 852 853 854 855 856 857 859 859 859 860 860 861 862 862 862 863 863 863 864 863 863
823 823 823 823 823 823 823 823 823 823 824 824 825 826 827 828 829 830 830 831 832 833 833 834 835 835 836 837 838 839 839 841 843 845 846 846 847 848 848 849 850 851 852 853 854 855 856 858 859 859 859 860 860 861 861 862 862 863 863 864 863 863
823 823 824 824 824 824 824 824 824 824 824 824 825 826 827 828 828 829 829 830 831 832 832 833 834 834 835 836 837 838 839 840 842 843 844 845 846 846 847 847 849 850 851 852 853 855 856 857 858 858 859 859 860 860 861 862 862 863 863 863 864 862
824 824 824 824 824 824 824 824 825 825 825 825 825 825 826 827 828 828 828 829 829 830 830 832 833 834 834 835 837 838 839 840 841 842 843 844 844 845 846 846 848 848 850 851 852 853 854 856 856 857 858 858 859 859 860 861 862 862 863 863 864 863
824 824 824 825 825 824 825 825 825 825 825 825 825 825 826 827 827 827 828 828 828 829 830 831 832 833 833 834 835 837 838 839 840 841 842 843 843 844 845 846 847 848 849 850 851 852 853 854 855 856 856 857 858 858 859 860 861 862 862 863 863 863
825 824 825 825 825 825 825 825 825 826 826 825 825 826 826 826 826 826 827 828 828 828 829 830 831 832 832 833 834 835 837 838 839 840 841 842 843 843 844 845 846 847 848 849 850 851 852 853 854 854 855 856 857 857 858 859 860 861 861 862 863 863
826 825 825 825 825 825 825 825 825 825 826 825 825 826 826 826 826 826 826 827 828 828 828 830 830 830 831 832 832 834 835 836 838 839 840 841 842 843 844 844 845 846 847 848 849 850 851 852 853 853 854 854 855 856 857 858 859 859 860 861 862 863
826 826 825 825 825 825 825 825 825 825 825 825 826 826 825 826 826 826 826 826 826 827 827 828 829 829 830 831 831 833 834 835 837 839 840 840 841 842 843 844 845 845 846 847 848 848 849 850 851 852 853 853 854 855 856 856 857 858 859 860 861 861
826 826 826 826 825 825 825 825 826 825 825 825 825 826 825 825 826 826 826 826 825 826 826 826 827 828 828 829 830 831 833 834 836 838 839 840 840 841 842 843 844 845 845 845 846 847 848 849 850 850 851 852 852 853 854 855 856 857 858 859 860 860
826 826 826 825 825 826 825 825 825 825 825 825 825 825 825 825 825 825 825 825 825 824 824 825 826 826 827 828 829 830 831 832 834 836 838 839 840 841 842 842 843 844 844 844 845 845 846 847 848 849 850 851 851 852 853 854 855 856 856 857 858 859
826 826 825 825 825 825 825 826 825 825 824 824 824 825 825 825 825 825 824 825 824 824 823 824 824 825 826 827 827 828 829 830 832 834 836 837 839 840 841 841 841 842 842 842 843 843 844 845 846 847 848 849 850 851 851 852 853 855 855 855 856 857
825 825 825 825 825 825 825 825 825 825 824 824 824 824 824 824 824 824 824 823 823 823 823 823 823 824 825 825 826 827 828 829 830 832 834 835 837 838 839 840 840 840 841 841 841 841 842 843 844 845 846 847 848 849 850 851 852 853 853 854 854 855
825 825 825 825 825 825 825 825 825 825 825 825 825 824 824 824 824 824 823 823 822 822 823 823 823 823 824 824 825 826 827 828 829 830 831 833 834 835 836 837 838 839 839 839 840 840 841 842 843 843 844 846 847 848 849 850 850 851 851 852 852 853
825 825 825 825 826 826 826 826 825 825 825 825 825 824 824 824 824 824 824 823 823 822 823 823 823 823 823 824 824 825 826 827 828 829 830 831 831 832 834 834 835 837 838 838 839 839 840 842 842 842 843 844 845 847 848 849 849 849 850 850 851 851
824 824 825 826 826 826 826 825 825 825 825 825 824 824 824 824 824 824 823 823 823 823 823 822 823 823 823 823 823 824 824 825 827 827 828 828 829 830 832 832 833 835 836 836 837 837 839 840 840 840 842 843 844 845 846 847 848 848 848 848 849 849
823 824 824 825 825 825 825 825 825 825 825 824 824 824 824 824 823 823 823 823 823 823 823 822 822 822 822 822 823 823 823 823 824 825 825 826 827 829 830 830 830 831 833 834 834 835 837 838 838 837 839 841 842 844 845 845 846 846 846 846 847 847
822 823 823 824 824 824 824 824 824 824 824 824 824 823 823 823 823 823 823 823 823 823 823 822 822 821 821 821 821 822 822 822 823 823 823 824 825 826 827 827 827 828 831 832 833 834 834 835 835 835 836 837 838 840 842 842 843 843 843 844 844 844
820 821 822 822 822 823 822 822 822 822 822 823 823 823 822 823 823 823 823 823 823 823 822 822 821 821 820 820 820 820 821 821 822 822 822 822 823 824 824 824 825 826 828 829 831 832 832 833 834 833 833 833 833 835 836 836 837 839 839 841 841 841
819 820 820 821 821 821 821 821 821 821 822 821 822 823 823 823 823 822 822 822 822 822 822 821 820 820 819 819 819 819 819 819 820 820 820 820 820 820 820 821 822 823 824 826 828 830 830 830 831 831 829 829 829 831 830 829 831 835 836 837 837 838
817 818 819 820 820 820 820 821 821 821 821 821 821 822 823 823 823 822 822 822 822 821 821 821 820 819 819 818 818 817 817 817 818 818 818 818 817 817 817 818 819 819 821 823 825 828 828 828 829 829 828 827 826 826 825 824 826 829 831 834 835 835
816 817 818 818 818 819 819 820 820 820 820 820 821 821 822 823 822 822 822 821 821 821 820 820 819 818 818 817 817 816 816 816 815 815 815 815 815 815 815 815 816 816 817 819 821 824 826 827 827 827 826 826 825 824 824 823 823 824 826 829 831 832
814 815 816 817 817 817 818 819 819 819 819 820 820 821 821 822 822 821 821 821 820 820 819 819 818 818 817 817 816 816 815 814 814 813 813 813 812 812 812 812 813 814 814 816 818 819 823 825 824 823 823 824 825 824 824 822 821 821 821 822 825 828
812 813 814 815 816 816 816 817 818 818 818 819 819 819 820 820 821 820 820 820 819 819 818 818 817 817 816 816 815 815 814 813 813 812 811 811 810 810 810 810 811 812 812 813 815 816 818 821 822 821 821 822 823 824 823 822 821 820 819 818 819 821
810 812 812 813 814 814 815 816 817 817 817 818 818 818 819 819 819 819 819 819 819 818 817 817 816 816 815 815 814 813 813 812 812 811 810 809 809 808 807 808 808 808 809 810 812 813 813 815 818 819 820 820 821 822 822 820 819 819 818 818 816 815
808 810 811 811 812 813 814 814 815 815 815 816 817 817 818 818 818 818 818 818 817 817 816 816 815 814 814 813 813 812 811 811 810 809 808 808 807 806 806 805 805 805 806 807 808 810 811 811 813 815 817 818 818 818 819 817 816 817 817 817 816 814
807 808 809 810 811 811 812 813 813 814 813 814 816 816 816 816 816 816 816 816 816 815 815 814 814 813 813 812 812 811 810 809 808 807 806 806 805 805 804 803 803 803 803 803 804 806 807 808 809 811 812 814 815 815 816 815 814 815 816 815 815 814
805 806 807 808 809 810 811 812 812 812 812 813 814 814 815 815 815 815 815 814 814 813 813 812 812 811 811 811 810 809 808 807 806 805 804 804 803 802 802 802 801 801 800 800 801 801 803 804 806 806 808 811 812 812 813 813 813 813 814 814 814 813
803 804 805 806 808 809 809 810 810 810 810 811 812 813 813 813 813 813 813 812 812 811 811 810 809 809 809 809 808 807 806 805 804 804 802 802 800 800 799 799 799 798 798 798 798 798 799 800 802 802 804 807 808 809 810 811 812 812 812 812 812 812
800 802 803 804 806 807 807 808 808 808 808 809 811 811 811 811 811 811 811 810 810 809 808 808 807 806 806 806 805 804 803 803 802 801 800 800 798 797 797 796 796 795 795 795 795 795 796 797 798 799 800 802 804 805 806 808 809 809 809 809 809 809
798 799 800 802 803 804 805 806 806 806 807 807 808 809 809 809 809 809 808 808 807 807 806 805 804 804 803 803 802 802 801 800 799 798 798 797 796 795 794 793 792 792 792 792 792 792 793 794 794 795 796 798 799 801 802 805 806 807 806 806 807 807
795 796 798 799 801 802 803 804 804 804 805 805 806 806 807 807 806 806 806 806 805 804 804 803 802 801 800 800 800 799 798 797 796 795 795 794 793 792 792 791 789 789 788 789 789 789 789 789 790 791 792 794 795 796 798 801 802 803 803 804 806 806